sat.trackr.live / text

‹ back to catalog

STPSAT-5

NORAD 43762 · 2018-099E

PAYLOAD ACTIVE UNKNOWN

§ Identity

Operator
Country
US
Launch date
2018-12-03
Launch site
AFWTR
Launch vehicle
Mass (kg)
RCS (m²)

External: N2YO · Heavens-Above · Gunter

§ Orbital elements

Epoch: 2026-09-20T01:37:55.288128Z

Period
95.09 min
Inclination
97.3995°
Eccentricity
0.0003613
Mean motion
15.14375436 rev/d
Perigee alt
520.4 km
Apogee alt
525.4 km
Semi-major
6,901.0 km
B*
1.5700e-4
RAAN
310.2638°
Arg perigee
34.3411°
Mean anomaly
325.8054°
Rev number
42,722

§ Raw data

STPSAT-51 43762U 18099E   26263.06800102  .00002816  00000+0  15700-3 0  99972 43762  97.3995 310.2638 0003613  34.3411 325.8054 15.14375436427221

JSON: /api/v1/satellites/43762 · /tle

For live sub-satellite position, see the globe view (requires WebGL).

§ Visibility from observer

Set your observer location to see the next 7 days of passes ≥ 10°. The values pass through the URL so the page stays shareable.

No JS? Fill the form by hand. The geolocation button needs JavaScript.